ATLAS 5 CENTAUR DEB, 46846

Orbit data source: Space-Track

ATLAS 5 CENTAUR DEB, 46846 is space debris in HEO originally from a launch on Wed, 17 Oct 2018 UTC launched from the Air Force Eastern Test Range (AFETR). Debris objects in space refer to the collection of defunct objects orbiting the Earth. Examples of debris include non-operational satellites, rocket bodies, and fragments generated from explosions, collisions, or faulty payload assembly.

Loading next visibility...
Identifier
46846, 2018-079DB
Orbit
HEO
Country
Flag of USUS
Related business
Flag of USUnited Launch Alliance/Lockheed Martin (US)
Manufacturer
ULA Decatur
Mission
Spacecraft
Bus & Motor
Unknown
Mass
Unknown
Launch date (UTC)
2018-10-17 (7 years ago)
Launch vehicle
Unknown
Launch site
Air Force Eastern Test Range (AFETR)
Object type
Payload
Rocket body
Debris
Shape & HBR
Unknown shape, 1.1 m
Radar Cross Section
RCS unknown

Expand to show TLE details & history
Last TLE update: 23 hours ago

TLE from 23 hours ago
0 ATLAS 5 CENTAUR DEB
1 46846U 18079DB  26034.08412123 -.00000163  00000-0  00000-0 0  9990
2 46846  12.2577  74.0349 4821728 244.3419  58.8235  1.71853014 32994
Epoch: 2026-02-03T02:01Z
TLE epoch observation values (Epoch: 2026-02-03T02:01:08.074Z)
Latitude
Longitude
-89.38519°
Altitude
22,197.101 km
Speed
3.789 km/s
True Right ascension
04h 56m 40s
True Declination
0° 00' 00"
Sunlit
Object was in daylight at epoch
Visualization orbit readout
Latitude
Unknown
Longitude
Unknown
Altitude
Unknown
Speed
Unknown
Apparent Right ascension
Unknown
Apparent Declination
Unknown
Sunlit
N/A
Visualization observer readout
Local Sidereal Time
03:14:36
Azimuth
Unknown
Elevation
Unknown
Doppler factor
Unknown
Orbital elements
Apogee altitude
37,262.737 km
Perigee altitude
8,868.69 km
Semi-major axis
29,443.85 km
Eccentricity
0.48217
Inclination
12.2577°
RAAN
74.0349°
Arg. of periapsis
244.3419°
True anomaly
115.62055°
Mean anomaly
58.8235°
Eccentric anomaly
86.39531°
Mean motion
0.42959 °/min
Orbital period
838.01 mins
BSTAR
0
Loading maneuver chart data...
Computing Atmospheric mass density...

Documentation

Showing up to 5 results
|